TimeCDT,TemperatureF,Dew PointF,Humidity,Sea Level PressureIn,VisibilityMPH,Wind Direction,Wind SpeedMPH,Gust SpeedMPH,PrecipitationIn,Events,Conditions,WindDirDegrees,DateUTC
12:52 AM,55.9,46.9,72,29.95,10.0,South,8.1,-,N/A,,Clear,180,2013-10-09 05:52:00
1:52 AM,54.0,46.9,77,29.96,10.0,South,10.4,-,N/A,,Clear,170,2013-10-09 06:52:00
2:52 AM,53.1,46.9,80,29.97,10.0,South,9.2,-,N/A,,Clear,180,2013-10-09 07:52:00
3:52 AM,51.1,46.9,86,29.98,10.0,South,5.8,-,N/A,,Clear,180,2013-10-09 08:52:00
4:52 AM,48.9,46.9,93,29.99,10.0,South,8.1,-,N/A,,Clear,180,2013-10-09 09:52:00
5:52 AM,50.0,48.0,93,29.99,10.0,South,10.4,-,N/A,,Clear,180,2013-10-09 10:52:00
6:52 AM,50.0,48.0,93,30.00,10.0,South,9.2,-,N/A,,Clear,180,2013-10-09 11:52:00
7:52 AM,50.0,48.0,93,30.01,10.0,South,8.1,-,N/A,,Clear,170,2013-10-09 12:52:00
8:52 AM,53.1,48.9,86,30.03,10.0,South,11.5,-,N/A,,Clear,180,2013-10-09 13:52:00
9:52 AM,59.0,50.0,72,30.03,10.0,South,15.0,20.7,N/A,,Clear,190,2013-10-09 14:52:00
10:52 AM,63.0,51.1,65,30.03,10.0,South,15.0,20.7,N/A,,Clear,180,2013-10-09 15:52:00
11:52 AM,68.0,51.1,55,30.03,10.0,South,13.8,20.7,N/A,,Clear,180,2013-10-09 16:52:00
12:52 PM,72.0,51.1,48,30.02,10.0,South,12.7,21.9,N/A,,Clear,170,2013-10-09 17:52:00
1:52 PM,75.0,51.1,43,30.01,10.0,South,15.0,20.7,N/A,,Clear,170,2013-10-09 18:52:00
2:52 PM,75.9,50.0,40,29.99,10.0,SSE,18.4,24.2,N/A,,Clear,160,2013-10-09 19:52:00
3:52 PM,77.0,48.9,37,29.98,10.0,SSE,16.1,23.0,N/A,,Clear,150,2013-10-09 20:52:00
4:52 PM,75.0,46.9,37,29.98,10.0,SSE,17.3,25.3,N/A,,Clear,160,2013-10-09 21:52:00
5:52 PM,73.0,45.0,37,29.97,10.0,SSE,16.1,21.9,N/A,,Clear,160,2013-10-09 22:52:00
6:52 PM,68.0,46.9,47,29.97,10.0,SSE,11.5,-,N/A,,Clear,150,2013-10-09 23:52:00
7:52 PM,62.1,48.0,60,29.99,10.0,SE,9.2,-,N/A,,Clear,140,2013-10-10 00:52:00
8:52 PM,62.1,48.0,60,30.00,10.0,SSE,11.5,-,N/A,,Clear,150,2013-10-10 01:52:00
9:52 PM,61.0,48.0,62,30.01,10.0,SSE,12.7,-,N/A,,Clear,150,2013-10-10 02:52:00
10:52 PM,60.1,46.9,62,30.01,10.0,South,10.4,18.4,N/A,,Clear,170,2013-10-10 03:52:00
11:52 PM,55.0,46.9,74,30.03,10.0,South,4.6,-,N/A,,Clear,190,2013-10-10 04:52:00